Miscellaneous Local Product
Issued by NWS Hastings, NE

Home | Current Version | Previous Version | Text Only | Print | Product List | Glossary Off
Versions: 1 2 3 4 5 6 7 8 9 10 11 12 13 14 15 16 17 18 19 20 21 22 23 24 25 26 27 28 29 30 31 32 33 34 35 36 37 38 39 40 41 42 43 44 45 46 47 48 49 50

740
AXUS43 KGID 042102
MISGRI

GID CWA HOURLY WEATHER ROUNDUP
NATIONAL WEATHER SERVICE HASTINGS NE
400 PM CDT WED MAY 04 2016

NOTE: "FAIR" INDICATES FEW OR NO CLOUDS BELOW 12,000 FEET WITH NO
SIGNIFICANT WEATHER AND/OR OBSTRUCTIONS TO VISIBILITY.

...SOUTH CENTRAL NEBRASKA...

CITY           SKY/WX    TMP DP  RH WIND       PRES   REMARKS
GRAND ISLAND   SUNNY     70  31  23 N15       30.08F
HASTINGS       SUNNY     70  32  24 N15G22    30.08F
KEARNEY        SUNNY     72  34  25 N10G18    30.10F
ORD            SUNNY     70  36  28 N14       30.08F
YORK           SUNNY     68  32  26 N9G21     30.07F
AURORA         SUNNY     70  30  22 N14G25    30.07F
LEXINGTON      SUNNY     72  39  30 NE12      30.10F
HOLDREGE       SUNNY     70  36  28 NE10G16   30.10F
HEBRON         SUNNY     69  31  24 N16       30.07S

...NEBRASKA PANHANDLE...

CITY           SKY/WX    TMP DP  RH WIND       PRES   REMARKS
CHADRON        SUNNY     75  39  27 VRB3      30.09F
ALLIANCE       SUNNY     73  40  30 NW5       30.13F
SCOTTSBLUFF    SUNNY     76  38  25 E5        30.13F
SIDNEY         SUNNY     71  37  28 VRB3      30.16F

...WESTERN AND NORTH CENTRAL NEBRASKA...

CITY           SKY/WX    TMP DP  RH WIND       PRES   REMARKS
VALENTINE      SUNNY     74  35  24 NE12      30.10F
AINSWORTH      SUNNY     70  34  26 NW9       30.10F
ONEILL         SUNNY     68  30  24 NW14      30.10S
BROKEN BOW     SUNNY     72  45  37 N12G20    30.09F
IMPERIAL       SUNNY     75  37  25 N7        30.12F
NORTH PLATTE   SUNNY     76  38  25 NE13G18   30.09F
MCCOOK         SUNNY     76  42  29 N10G17    30.09F

...EASTERN NEBRASKA...

CITY           SKY/WX    TMP DP  RH WIND       PRES   REMARKS
NORFOLK        SUNNY     68  33  27 N13       30.05F
SO SIOUX CITY  SUNNY     67  43  41 NW15      30.03F
TEKAMAH        SUNNY     69  40  34 N15       30.02F
COLUMBUS       SUNNY     70  34  26 NW8G20    30.06F
ALBION         SUNNY     67  34  29 NW8       30.07F
OMAHA EPPLEY   MOSUNNY   69  38  32 N20       30.02S
MILLARD        SUNNY     69  41  36 N7G17     30.03F
LINCOLN        SUNNY     71  33  24 N13       30.05F
NEBRASKA CITY  SUNNY     68  32  26 N12G24    30.02F
BEATRICE       SUNNY     69  37  30 N14G21    30.04F
FALLS CITY     SUNNY     70  37  29 N16G23    30.00F

...NORTHERN KANSAS...

CITY           SKY/WX    TMP DP  RH WIND       PRES   REMARKS
GOODLAND       SUNNY     75  39  27 VRB7      30.13F
HILL CITY      SUNNY     77  40  26 N14G20    30.10F
NORTON         CLEAR     73  30  20 N9G17     30.09F
PHILLIPSBURG   SUNNY     73  39  29 N7        30.08F
SMITH CENTER   SUNNY     70  39  32 NW12G22   30.08F
BELOIT         SUNNY     72  30  21 N14       30.06F
HAYS           SUNNY     73  43  33 N13       30.09F
RUSSELL        SUNNY     73  39  29 N13       30.06F
CONCORDIA      SUNNY     71  33  24 N12G21    30.06F
SALINA         SUNNY     74  37  26 N15G22    30.05F
TOPEKA         SUNNY     71  39  31 N16G22    30.00F



USA.gov is the U.S. government's official web portal to all federal, state and local government web resources and services.